Location: Lavardac
(44.1778°N, 0.2983°E)
Time: 04:35:38
(UTC+00:00)

Cosmos 2058 Rocket - Pass Details

Date: 06 June 2020
Orbit: 611 x 638 km, 82.5° (Epoch: 10 July)

Event Time Altitude Azimuth Distance (km) Brightness Sun altitude
Rises 23:02:39 0° 356° (N) 2,925 8.0 -21.9°
Reaches altitude 10° 23:04:57 10° 1° (N) 2,017 6.7 -22.0°
Maximum altitude 23:09:19 51° 78° (ENE) 798 3.5 -22.1°
Enters shadow 23:09:55 47° 106° (ESE) 838 3.5 -22.2°
